User: anonymous   Login
Location: Unspecified
(0.0000°N, 0.0000°E)
Time: 21:55:08
(UTC+00:00)
Language:

Snapshot - Orbit

View from above orbital plane
View from above orbital plane
View from above satellite
View from above satellite

Ground track
Ground track

The orbit data is extracted from the following two-line orbital elements,

1 01314U 65027A   15187.14524741  .00000053  00000-0  17322-3 0  9995
2 01314 090.3027 265.0498 0028529 276.7359 141.4057 12.91741843115134
Epoch (UTC): 06 July 2015 03:29:09
Eccentricity: 0.0028529
inclination: 90.3027°
perigee height: 1273 km
apogee height: 1316 km
right ascension of ascending node: 265.0498°
argument of perigee: 276.7359°
revolutions per day: 12.91741843
mean anomaly at epoch: 141.4057°
orbit number at epoch: 11513

The dashed part of the orbit path shows where the satellite is in the earth's shadow,  

DLR